Theta_e
316 317 318 318 318 318 319 318 318 318 318 317 317 317 316 316 316 318 317 312 312 314 314 315 315 315 316 316 316 317 316 316 316 316 315 315 315 315 315 315 313 312 312 311 310 310 310 310 310 309 308 307 307 306 305 305 304 303 302 302 301 300 300 299 298 298 298 298 298 298 298 297 297 297 297 297 297 297 297 297 297 297 297 297 297 296
316 316 317 318 318 318 318 319 319 318 317 316 316 316 316 317 317 318 316 311 311 313 314 315 315 315 316 315 316 316 315 315 315 316 316 316 316 316 316 315 314 313 312 311 310 309 309 309 308 308 308 308 307 306 306 305 304 303 302 302 301 300 299 299 298 298 298 298 298 298 297 297 297 297 297 297 297 297 297 297 297 297 297 297 296 296
316 317 317 317 318 317 317 317 317 317 316 316 316 316 316 317 318 318 315 310 310 312 314 315 314 315 315 315 315 315 315 315 315 316 316 316 316 316 316 316 315 313 311 311 310 309 308 308 308 308 308 308 307 307 306 305 303 303 302 301 301 300 299 299 298 298 297 297 297 297 297 296 296 296 296 297 297 297 297 297 297 297 297 296 296 295
317 317 316 317 317 317 316 315 315 315 315 316 317 316 316 318 319 318 314 311 310 311 313 314 313 314 314 314 314 315 315 315 316 316 316 316 316 316 316 316 316 313 312 311 310 309 308 307 307 308 308 308 307 306 305 304 303 302 302 302 301 300 299 299 298 297 297 297 297 297 296 296 296 296 296 296 297 297 296 296 296 296 296 296 295 294
318 317 315 315 316 316 316 315 315 315 315 317 317 317 317 318 319 318 316 313 312 312 311 312 314 314 316 316 316 316 315 315 316 316 316 316 315 315 314 315 316 314 312 311 310 309 308 308 309 309 308 308 307 307 306 305 304 303 302 301 301 300 299 298 298 297 297 297 297 296 296 296 296 296 296 296 296 296 296 296 296 296 296 295 294 294
317 316 313 315 316 316 316 316 316 317 315 316 318 318 318 318 318 319 318 315 315 315 312 313 315 316 316 317 318 316 314 314 314 314 314 315 315 315 314 315 315 314 312 312 311 310 309 310 310 309 309 309 308 308 307 306 305 304 302 301 300 299 299 298 297 297 297 297 296 296 296 296 295 295 295 296 296 296 296 296 296 296 295 294 294 293
316 313 312 316 317 316 316 316 317 318 316 315 319 319 319 318 318 319 318 316 316 316 314 313 315 316 316 316 317 316 315 314 315 315 315 314 315 316 316 316 315 313 312 311 311 310 310 310 310 311 311 310 310 309 307 306 305 303 302 301 300 299 299 298 297 297 296 296 296 296 296 295 295 295 295 295 295 295 295 295 296 295 295 294 293 292
317 314 312 315 316 316 316 316 317 318 316 317 317 317 317 317 318 318 317 316 315 316 315 313 315 316 316 316 316 316 315 314 315 316 316 315 315 315 315 316 315 313 312 312 311 311 311 312 312 312 312 312 311 309 307 306 305 304 302 301 300 299 299 298 298 297 296 296 296 295 295 295 295 295 295 295 295 295 295 295 295 295 294 294 293 292
317 316 315 315 315 316 317 317 318 318 318 316 314 314 315 315 316 316 315 315 315 315 315 315 315 315 316 316 316 316 315 314 314 314 315 315 316 315 315 316 316 314 313 312 312 312 312 313 313 313 312 312 310 309 308 307 306 305 303 302 301 299 299 298 298 297 296 296 295 295 295 295 295 294 294 295 295 295 295 295 294 294 293 293 292 291
315 312 313 315 315 317 315 312 314 318 317 313 311 313 313 313 313 314 314 314 314 315 316 316 315 315 317 316 316 316 315 314 315 314 315 316 316 316 315 316 316 315 313 312 312 312 312 313 313 313 312 311 310 309 308 307 306 305 303 302 301 299 298 298 297 297 296 295 295 295 295 294 294 294 294 294 294 294 294 294 294 293 293 292 292 291
311 307 309 313 315 314 311 308 308 313 313 311 312 313 313 313 312 312 313 312 314 317 317 317 316 315 316 316 316 315 315 315 316 315 316 316 317 317 317 317 316 315 313 312 312 312 313 313 312 312 311 310 310 309 308 307 306 305 304 302 301 299 298 297 297 296 296 295 295 294 294 294 294 294 294 294 294 294 294 294 294 293 293 292 291 291
312 309 310 312 311 310 310 309 308 308 309 312 313 313 315 315 313 313 312 312 315 318 317 317 317 316 316 315 315 315 315 315 316 316 316 316 317 318 317 316 316 314 312 312 313 313 313 312 312 311 311 310 310 309 308 308 307 305 304 303 301 299 298 297 296 296 295 295 294 294 294 294 294 294 294 294 294 294 294 294 293 293 293 292 291 291
316 314 313 312 309 309 313 313 310 307 308 312 313 313 315 316 315 316 316 315 316 317 315 315 317 318 316 315 314 315 315 315 315 315 316 316 316 317 317 316 315 313 313 313 313 313 312 312 312 312 311 311 311 310 310 309 308 306 305 303 301 300 299 297 296 296 295 294 294 294 294 294 293 293 293 294 294 294 294 294 293 293 292 292 291 291
318 317 314 313 311 310 313 314 314 311 309 310 313 314 316 317 318 320 319 317 318 317 313 312 314 316 314 313 315 315 315 315 315 315 316 316 315 316 318 317 315 313 313 313 313 312 312 312 312 312 312 312 311 311 310 309 309 307 306 305 302 300 299 298 297 296 295 294 294 294 294 293 293 293 293 293 293 293 293 293 293 292 292 291 291 291
317 317 315 315 314 312 312 314 316 315 311 311 313 314 316 317 317 318 317 317 317 316 314 311 312 313 312 313 315 315 315 316 315 315 315 315 315 316 316 315 314 313 313 313 313 312 312 312 312 312 312 312 311 311 311 310 309 308 307 306 304 301 300 298 297 296 295 294 294 293 293 293 293 293 293 293 293 293 293 293 292 292 291 291 290 290
316 318 318 315 313 312 313 315 316 316 314 312 313 314 315 316 316 316 317 316 314 314 314 312 312 312 313 314 316 315 315 315 315 315 315 315 315 315 314 313 312 313 312 313 313 313 312 312 311 312 311 312 311 311 311 311 310 309 308 307 305 303 301 299 297 296 295 294 294 293 293 293 293 293 293 293 293 293 293 292 291 291 291 290 290 290
315 317 317 311 310 309 309 312 314 314 315 313 313 314 315 315 316 317 318 316 313 313 315 314 314 314 314 315 316 315 314 314 314 315 314 314 315 314 314 313 312 312 312 312 313 313 313 312 312 311 311 311 311 311 311 311 311 310 309 308 306 303 301 299 298 297 295 294 294 293 293 293 293 292 292 292 292 292 292 291 291 290 290 290 289 289
316 316 316 311 311 308 304 307 310 310 312 313 313 314 314 313 313 314 316 316 314 316 316 316 316 315 315 316 315 314 313 313 314 314 313 313 314 315 315 313 312 312 312 312 312 312 313 312 312 311 311 311 311 311 311 311 311 310 309 308 307 304 302 301 299 297 296 294 294 293 293 293 293 292 292 292 292 292 291 291 290 290 290 289 289 289
317 317 316 310 310 307 303 307 310 308 309 310 310 311 311 313 314 313 315 315 315 316 315 315 316 315 315 316 314 313 313 313 313 313 312 312 314 315 315 313 313 312 312 311 312 312 312 312 312 311 311 311 311 311 311 310 310 310 309 308 306 304 302 301 300 298 296 295 294 293 293 293 292 292 292 292 292 291 291 290 290 290 289 289 289 289
315 316 316 308 306 308 306 308 311 311 308 307 307 309 309 311 313 313 314 314 314 315 315 315 316 314 315 316 315 314 314 313 313 313 312 312 313 314 314 313 313 313 312 312 311 312 312 312 312 311 311 311 310 310 310 310 310 310 309 308 306 304 301 300 300 298 296 295 294 293 293 292 292 292 291 291 291 291 290 290 289 289 289 289 289 288
315 315 315 308 304 308 309 309 311 312 311 308 308 309 309 309 310 311 313 313 313 314 314 314 315 314 314 315 315 315 314 314 313 313 314 314 313 314 314 313 312 312 312 312 312 312 312 312 312 311 311 311 310 310 310 310 310 310 308 308 306 304 302 301 300 298 297 296 294 293 292 292 292 291 291 291 291 290 290 289 289 289 289 288 288 288
314 315 315 311 308 310 312 312 313 313 314 312 310 310 311 311 311 312 313 314 313 313 314 315 315 314 314 314 314 313 313 314 314 314 315 315 314 313 313 312 312 312 312 312 312 312 312 311 311 311 311 311 310 310 310 310 310 309 309 308 306 304 303 302 300 299 297 296 294 293 292 292 291 291 291 291 290 290 289 289 289 288 288 288 288 288
315 315 315 314 314 314 313 311 311 311 312 312 312 312 312 312 312 313 315 314 313 312 313 314 315 315 314 314 313 312 312 312 313 313 314 315 314 313 312 311 311 311 311 311 311 311 311 311 311 311 310 310 310 310 310 310 310 310 309 308 306 305 303 302 300 299 297 296 294 293 292 291 291 291 290 290 290 289 289 289 288 288 288 288 288 288
313 315 314 314 315 315 312 307 305 306 308 310 311 312 312 312 312 313 314 313 313 313 313 313 314 315 314 314 314 313 313 312 313 313 312 313 313 312 311 311 311 311 311 311 311 311 311 310 310 310 310 310 310 310 310 310 310 310 309 308 307 305 303 301 300 298 297 295 294 293 292 291 291 290 290 290 289 289 288 288 288 288 288 288 288 288
313 314 314 313 314 315 313 310 308 306 307 309 310 311 313 313 313 314 313 311 313 314 314 314 314 314 314 315 314 314 314 312 311 312 311 312 312 311 311 311 310 310 310 310 311 311 311 310 310 310 310 309 310 310 310 310 310 309 309 308 307 305 303 301 299 298 296 295 293 292 291 291 290 290 290 289 289 288 288 288 288 288 288 288 288 288
313 313 313 313 314 314 314 314 313 310 307 308 310 311 312 313 313 313 312 312 313 313 313 313 313 313 314 314 314 313 313 312 311 311 310 310 311 311 311 311 310 310 310 310 310 311 310 310 310 309 309 309 309 309 309 309 309 309 308 308 306 304 303 301 299 297 296 294 293 292 291 291 290 290 289 289 288 288 288 288 288 288 288 288 288 288
313 313 313 313 313 313 314 314 315 313 309 309 310 311 311 313 313 313 312 313 313 313 313 313 314 313 313 313 313 313 313 313 312 312 311 310 310 310 311 311 309 309 310 310 310 310 310 310 310 309 309 308 309 309 309 309 309 308 308 307 306 304 302 301 299 297 295 294 292 291 291 290 290 290 289 289 288 288 288 288 288 288 288 288 288 287
313 312 312 312 312 312 312 312 313 314 312 311 311 311 311 312 313 314 313 313 313 313 313 314 314 314 314 312 312 313 313 313 312 312 312 312 311 310 310 310 309 309 309 309 309 309 309 309 309 308 308 308 308 308 308 308 308 307 307 306 304 303 302 300 298 296 295 293 292 291 291 290 290 289 289 288 288 288 288 288 288 288 288 288 288 287
311 311 311 312 312 312 312 311 312 313 313 313 313 312 312 312 312 313 313 313 313 313 313 314 314 314 313 312 312 313 312 312 312 312 311 311 311 311 310 309 309 309 309 309 309 308 309 308 308 308 308 308 308 308 307 307 307 307 306 304 302 301 301 299 297 296 294 293 292 291 290 290 289 289 288 288 288 288 288 288 288 288 288 288 287 287
309 310 311 312 311 312 312 312 312 312 312 312 313 313 313 313 312 312 312 312 313 313 313 313 313 313 313 312 312 312 312 312 311 311 311 311 311 311 311 310 310 310 309 309 309 309 308 308 308 308 308 307 307 307 307 307 306 306 304 303 301 300 299 298 297 295 294 292 291 290 290 289 289 289 288 288 288 288 288 288 288 288 288 287 287 286
309 310 311 311 311 312 311 311 312 312 312 312 312 313 313 312 313 312 312 312 312 312 312 312 313 313 312 312 312 312 312 311 311 311 311 311 311 311 311 311 310 310 310 310 310 309 309 309 308 308 308 308 307 307 306 306 305 304 303 302 301 300 299 297 296 294 293 292 291 290 289 289 289 288 288 288 288 288 288 288 288 288 288 287 286 286
308 309 310 310 311 312 311 312 312 311 311 311 311 312 311 311 312 312 312 312 312 312 312 312 313 312 311 312 312 311 311 310 310 310 310 311 310 311 311 310 310 310 310 310 310 310 309 309 309 308 308 308 308 307 307 305 304 303 302 302 301 300 298 297 295 294 293 291 290 290 289 289 289 288 288 288 288 288 288 288 288 288 287 286 286 285
308 309 309 310 311 311 311 312 311 311 312 312 311 311 311 311 311 311 311 311 311 312 312 312 311 311 310 311 310 310 310 310 310 310 311 311 311 311 311 311 310 310 310 310 310 310 309 309 309 308 308 308 308 307 307 306 305 304 303 303 302 300 298 297 295 294 293 291 290 290 289 289 289 288 288 288 288 288 288 288 288 287 287 286 286 285
308 309 309 310 311 311 311 311 311 312 312 312 311 311 310 310 310 311 310 311 311 311 311 311 310 310 310 310 310 310 310 310 310 311 311 311 311 311 311 311 311 310 310 310 310 310 309 309 309 309 309 308 308 307 306 306 305 304 303 302 301 300 298 297 295 294 292 291 290 289 289 289 288 288 288 288 288 288 288 288 287 287 286 286 285 285
309 308 308 310 311 311 311 312 312 313 312 312 311 311 310 310 310 310 311 310 310 310 311 311 310 310 310 310 310 311 311 311 311 311 311 311 311 311 311 310 310 310 310 310 310 309 309 309 309 309 308 308 308 307 306 305 304 303 302 301 300 299 298 296 295 293 291 290 289 289 289 288 288 287 288 288 288 288 288 288 287 286 286 285 285 284
309 309 309 310 310 311 311 311 313 314 311 310 310 310 310 310 310 311 311 311 310 310 311 311 310 310 311 311 311 311 312 312 311 311 311 311 311 311 310 310 310 310 310 310 309 309 309 309 309 309 308 308 308 307 306 306 305 304 303 302 300 299 297 296 294 292 291 290 289 289 289 288 287 287 287 287 288 288 288 287 286 286 285 285 284 284
309 310 310 310 311 311 311 311 313 314 311 310 311 311 310 310 310 311 312 312 310 310 311 310 310 311 311 311 311 312 312 311 311 311 311 311 311 310 310 310 310 310 309 309 310 310 310 310 309 309 309 308 308 308 307 306 305 304 303 301 299 298 296 295 293 292 291 290 289 289 288 288 287 287 287 288 288 288 288 287 286 285 285 284 284 284
309 309 310 311 312 312 312 312 312 313 312 312 313 312 311 311 311 311 312 312 311 310 311 311 311 311 311 311 311 312 311 311 311 311 310 311 311 310 310 310 310 310 310 311 311 311 311 311 310 310 309 309 309 308 307 306 305 304 302 301 299 297 295 294 292 291 290 289 289 289 288 287 287 287 288 288 288 288 287 286 285 285 284 284 284 284
309 309 309 311 312 312 313 313 313 313 312 312 312 311 311 312 312 311 312 313 312 310 311 311 311 311 311 311 311 311 312 311 311 311 310 311 311 310 310 310 310 310 311 312 313 313 312 311 310 310 309 309 309 309 307 306 305 303 302 301 299 297 295 294 293 292 290 289 289 288 287 287 287 287 288 288 288 287 286 285 285 284 284 284 284 284
309 309 309 310 310 311 312 312 312 312 313 312 311 310 310 311 311 312 313 313 312 311 311 310 311 311 311 311 311 311 311 310 310 311 311 310 311 310 310 310 310 311 311 312 312 312 312 312 311 310 310 310 310 309 308 307 306 304 303 301 299 298 297 297 295 292 290 289 289 288 287 287 287 287 288 288 287 286 285 285 284 284 284 284 284 283
309 309 309 310 310 310 311 312 312 312 313 313 311 310 310 310 311 312 312 312 311 311 311 310 310 311 310 310 310 310 311 310 310 310 310 310 310 310 310 310 310 310 310 311 311 311 311 311 311 311 310 309 309 308 309 308 307 305 304 301 300 300 300 297 294 291 290 289 288 287 287 287 287 287 287 287 287 286 285 284 284 284 284 284 283 283
310 309 309 310 310 309 310 311 311 311 313 313 311 310 310 311 311 312 311 310 310 311 310 310 310 310 310 310 310 310 310 310 310 310 310 310 310 309 310 309 309 310 310 310 310 310 311 311 310 310 309 308 307 307 307 307 307 306 304 302 302 302 299 296 293 291 289 288 287 287 287 287 287 287 287 287 286 285 285 284 284 284 283 283 282 282
311 311 310 310 310 310 310 311 311 311 313 312 311 310 310 310 311 311 310 310 311 310 310 310 310 310 310 310 310 310 310 310 310 310 309 309 309 309 309 309 309 309 310 310 310 310 309 309 309 309 309 308 307 307 306 306 306 305 304 304 303 301 296 293 291 290 288 287 286 286 287 287 287 287 287 286 285 285 284 284 284 283 283 282 282 281
312 313 312 310 310 310 310 311 311 312 313 311 310 311 311 311 311 311 311 311 311 310 310 310 310 311 311 310 310 310 309 309 309 309 309 309 309 309 309 309 309 309 309 309 309 309 309 308 308 308 308 308 308 307 307 306 306 304 303 303 301 297 294 292 290 288 287 286 286 286 287 287 287 286 285 285 285 285 284 283 283 282 282 281 281 281
312 311 311 310 311 311 310 311 311 310 310 310 310 311 311 311 311 311 310 310 310 311 311 310 311 311 310 310 310 310 310 309 309 309 309 309 309 309 309 308 308 309 309 309 309 309 308 308 307 307 307 307 307 307 307 305 304 303 302 301 298 295 293 290 288 287 286 286 286 286 287 287 286 286 285 285 285 284 283 283 283 282 281 281 281 280
308 307 307 308 309 308 309 311 310 308 307 307 307 308 309 309 310 310 309 310 310 310 310 309 309 308 308 308 307 307 308 308 308 308 308 308 308 308 308 308 308 308 308 308 308 308 308 307 307 307 306 306 306 306 305 304 302 300 300 299 296 294 292 289 287 286 285 286 286 286 287 286 286 286 286 286 285 284 283 283 282 281 280 280 280 280
306 305 303 304 305 305 307 309 308 305 304 304 305 305 306 307 308 307 307 308 308 308 307 307 306 307 307 307 307 306 307 307 307 307 307 307 307 307 307 308 307 307 308 308 308 307 307 306 306 306 307 307 306 305 304 303 300 298 297 296 295 293 290 288 287 286 285 286 286 286 286 286 286 286 286 285 284 283 283 282 281 280 280 280 280 279
302 301 299 301 302 302 303 305 304 304 303 304 305 306 306 306 306 305 305 305 305 305 305 306 306 306 306 307 307 307 307 307 307 307 307 307 307 307 307 307 307 307 307 307 307 307 306 306 306 306 306 306 305 304 303 301 299 296 295 293 293 292 289 287 286 285 285 286 286 286 286 287 287 286 285 284 283 283 282 281 280 279 279 279 279 279
297 297 297 298 299 299 299 301 303 304 304 304 305 305 305 305 304 303 303 303 303 303 303 304 304 305 305 305 306 306 306 307 307 307 307 307 307 307 307 307 307 306 307 306 306 306 306 306 306 305 305 305 304 303 301 299 297 296 294 292 291 290 288 286 285 285 286 286 286 286 287 287 286 285 285 284 283 282 281 280 279 279 279 279 279 278
295 296 296 297 297 298 298 300 303 304 304 304 304 303 302 302 300 299 299 299 299 299 300 300 300 301 301 301 302 303 305 305 306 306 306 306 306 306 306 306 306 306 306 306 306 305 305 304 304 304 304 303 302 301 299 297 296 295 294 292 290 289 287 286 285 285 286 286 286 287 287 287 286 285 284 283 282 281 280 279 279 279 279 279 278 278
296 296 296 297 297 298 298 299 301 301 300 300 300 298 297 296 295 295 296 296 296 296 296 296 297 297 298 298 300 301 303 304 305 306 306 305 306 305 306 305 305 305 305 305 305 305 305 305 304 303 302 302 301 300 298 296 295 295 293 291 289 287 286 285 285 285 286 286 287 287 287 287 286 285 284 282 281 280 279 279 279 279 278 278 278 277
Wind_Speed
7 6 7 10 12 13 14 15 16 15 11 12 11 10 13 12 13 16 7 6 7 6 10 14 15 18 21 19 18 22 23 22 23 23 26 29 27 23 24 26 28 32 34 31 31 32 33 34 35 37 37 38 39 41 43 44 46 46 46 45 43 42 41 41 41 40 39 37 35 33 31 29 27 25 23 21 20 18 17 15 13 12 12 13 14 15
5 6 11 17 17 13 10 8 12 13 11 11 12 11 12 11 14 14 3 6 6 4 9 14 15 19 20 17 18 21 20 20 23 24 27 29 26 23 23 26 27 26 27 27 27 29 31 33 35 36 37 37 39 40 43 45 46 47 47 46 45 43 43 43 43 41 40 38 36 34 32 29 28 26 24 23 22 20 18 15 13 13 13 14 14 15
6 10 18 20 11 5 3 4 8 12 12 11 9 9 10 10 12 8 4 6 5 4 7 11 13 16 19 18 18 21 20 21 28 30 28 27 25 23 23 22 21 21 23 24 25 27 29 31 33 34 35 36 37 39 42 44 46 47 47 47 46 45 44 44 43 42 40 38 36 34 32 30 29 28 26 25 23 21 18 16 14 14 14 15 15 15
8 10 14 12 4 4 7 6 7 9 9 10 8 7 10 10 10 6 2 4 6 6 7 11 11 13 16 17 18 25 26 23 28 32 29 26 25 26 25 21 17 19 22 23 23 25 27 29 30 31 32 34 36 39 42 45 47 48 47 48 48 47 46 45 44 43 41 39 37 35 34 32 31 29 27 25 23 21 19 17 15 15 15 15 15 16
13 7 2 1 3 7 10 7 7 8 7 9 10 10 11 11 11 9 2 1 7 8 4 8 11 11 12 14 14 15 16 16 20 23 23 26 28 29 29 24 19 19 20 21 22 23 25 26 26 26 29 31 35 38 41 44 47 47 48 49 49 48 47 46 45 44 42 41 39 36 35 33 32 30 28 26 24 22 20 18 17 16 15 15 16 16
15 5 5 3 4 6 9 8 9 9 8 9 11 14 16 15 14 11 5 5 7 6 2 2 9 8 7 11 10 4 5 8 12 13 16 23 25 23 25 25 20 20 21 21 21 23 24 22 22 24 26 29 32 35 38 41 44 46 47 49 49 49 48 47 46 45 43 42 40 38 37 35 33 32 30 28 25 23 21 19 18 17 16 15 16 17
6 2 3 6 7 6 8 11 11 10 8 8 5 7 12 13 13 11 6 3 6 6 1 1 7 9 5 7 9 5 6 9 8 8 13 17 19 19 23 23 19 19 19 19 20 23 23 21 21 23 24 26 28 31 34 38 42 44 46 48 49 49 48 48 47 46 44 42 40 39 38 36 34 33 31 28 26 24 22 20 19 17 16 16 16 17
4 4 3 6 7 7 9 10 10 11 9 5 1 2 2 6 9 8 5 5 6 8 4 5 4 11 10 7 11 10 10 11 9 10 11 13 18 23 26 23 19 20 18 17 20 23 22 21 22 22 22 22 24 27 31 35 39 42 45 47 48 49 49 49 48 47 45 43 41 40 38 37 35 34 32 30 27 25 23 21 19 18 17 16 17 18
3 5 6 8 7 8 7 3 3 10 9 2 3 3 3 1 2 3 4 5 6 8 7 7 8 8 12 6 12 14 13 13 13 15 13 12 17 23 27 23 18 20 19 17 20 22 21 20 20 20 19 20 21 24 28 32 35 38 42 45 47 49 49 49 49 47 46 44 42 41 39 38 37 35 33 31 28 26 23 21 19 18 17 17 17 18
3 2 3 7 8 6 3 4 4 4 5 2 4 4 6 3 2 2 4 4 6 9 9 8 12 7 13 4 10 11 11 11 12 13 12 13 16 20 24 23 18 18 19 18 18 20 20 20 19 18 19 19 20 23 26 29 32 35 40 44 47 48 50 50 49 48 46 44 43 42 41 40 38 36 34 31 29 26 24 22 20 19 18 18 18 18
3 4 1 4 6 2 5 6 5 3 2 5 5 2 2 2 2 2 4 2 5 11 10 12 17 11 10 2 9 9 10 12 11 9 10 12 15 16 20 21 19 19 19 18 19 21 21 20 20 20 20 20 21 23 25 27 29 33 38 42 46 48 49 50 49 48 47 46 45 44 43 40 38 37 35 33 30 28 25 23 21 20 19 19 19 19
6 5 3 3 4 4 5 3 3 4 2 4 3 2 2 4 3 3 4 3 6 10 5 12 20 17 11 3 7 8 11 14 11 8 10 10 11 14 17 19 19 19 18 18 22 23 22 22 23 22 21 21 22 23 24 25 27 31 35 40 45 47 49 50 50 49 48 47 46 45 44 41 39 38 36 34 32 29 27 24 23 21 20 19 19 20
6 8 7 4 4 7 6 2 2 2 3 4 5 4 4 4 3 4 5 4 8 8 2 8 12 14 13 9 8 8 9 13 10 7 9 9 10 13 14 16 18 18 17 21 24 24 23 24 23 22 20 21 22 22 23 24 26 29 33 38 43 46 48 49 50 50 50 49 48 47 45 42 40 39 37 35 33 30 28 26 23 22 21 20 20 20
3 3 8 6 2 10 12 7 5 4 7 8 8 7 6 5 5 6 6 6 9 6 3 5 4 7 9 8 14 17 13 14 12 10 13 13 14 14 12 14 17 18 19 23 26 25 24 23 21 20 20 20 21 22 22 24 26 28 31 36 41 45 47 49 50 51 51 50 50 48 45 43 42 40 38 36 34 31 29 26 24 23 22 21 21 21
6 5 8 9 4 13 17 12 5 3 7 10 7 7 7 6 6 6 7 8 8 5 1 4 2 5 4 1 12 19 18 17 15 14 17 19 20 17 12 14 16 18 21 25 28 27 24 22 20 20 20 21 22 22 23 24 26 28 30 33 38 43 46 48 50 52 52 52 51 49 47 45 43 41 39 37 35 32 29 27 25 23 22 22 21 21
7 9 7 6 3 14 15 9 4 4 4 7 6 7 8 6 7 7 9 6 3 6 5 5 4 6 6 3 7 11 13 16 15 14 15 19 23 20 16 17 18 19 23 26 29 29 26 22 21 21 22 23 23 24 24 25 27 28 29 32 36 41 44 47 50 52 53 53 52 51 48 46 44 42 40 38 35 33 29 27 25 24 23 22 22 22
6 5 5 5 1 7 4 1 4 3 2 5 6 7 4 1 3 7 9 3 1 6 9 6 6 7 8 8 9 13 12 14 12 10 12 17 20 19 19 22 23 23 25 27 30 30 28 25 23 23 24 26 26 26 26 25 27 29 29 30 34 39 43 46 50 52 53 54 53 52 50 48 46 43 41 38 35 32 29 27 25 24 23 22 22 22
6 4 4 5 2 2 3 4 1 2 1 4 5 4 1 2 1 4 7 4 4 10 9 10 14 11 9 7 8 15 14 14 11 10 11 13 13 14 19 27 29 28 27 27 28 29 29 28 27 26 27 28 29 29 27 26 28 30 30 31 34 38 41 45 49 52 53 54 54 53 52 49 46 44 41 38 35 32 29 27 25 24 23 23 23 23
3 4 3 2 0 3 3 1 3 3 3 1 2 2 1 2 4 5 6 5 7 9 8 14 20 15 10 7 6 14 16 14 13 12 10 10 10 10 17 26 28 27 27 28 29 30 31 30 29 29 28 30 32 32 30 28 29 31 32 33 35 37 40 44 47 51 53 55 55 55 53 49 46 44 41 38 35 32 29 27 25 24 23 23 23 23
2 4 4 1 2 3 4 4 5 5 4 1 4 3 1 2 3 5 5 5 7 8 9 13 17 13 8 6 8 15 15 13 12 11 10 11 13 13 17 25 27 26 28 32 34 34 34 33 31 30 29 30 34 34 32 31 31 33 34 34 36 38 41 44 47 50 53 55 56 56 53 49 46 44 41 38 35 32 29 27 26 24 24 23 23 23
2 4 5 1 1 3 5 7 10 10 9 6 5 6 6 3 1 3 4 6 6 7 8 8 12 12 4 1 5 10 12 12 11 11 9 10 14 15 19 27 30 30 30 32 37 38 35 34 34 32 29 31 34 36 35 34 33 35 36 35 37 39 42 45 48 51 53 54 55 55 53 50 47 44 41 38 34 31 29 28 26 24 24 23 23 23
4 4 7 3 3 7 7 8 10 10 8 8 9 9 9 9 5 4 7 6 4 5 8 7 11 15 3 6 5 7 8 8 9 9 7 8 13 16 20 25 27 29 29 30 36 37 31 30 33 32 31 32 35 37 37 37 35 37 38 37 38 41 42 44 47 50 53 54 55 55 53 50 47 44 41 37 34 32 30 28 26 24 24 23 23 23
4 2 6 8 6 5 4 2 2 2 2 3 6 8 8 9 9 9 8 5 3 4 8 7 10 15 4 8 6 6 7 5 8 9 7 8 15 18 21 24 24 26 28 29 34 34 29 28 31 32 34 34 36 38 39 38 38 38 40 40 40 42 43 44 47 50 52 54 55 55 53 50 47 44 41 37 34 32 29 27 26 24 23 23 23 24
2 1 6 8 5 4 2 2 1 1 2 4 7 8 9 10 10 10 6 2 1 5 8 7 9 14 5 7 3 4 4 7 9 11 10 10 13 17 21 24 24 26 27 27 31 33 31 30 31 34 35 35 37 39 40 41 41 40 41 42 42 43 44 45 47 49 52 54 55 55 53 51 47 44 40 37 34 32 29 27 25 24 23 22 23 24
5 4 6 6 5 5 5 5 4 3 5 7 8 9 11 12 12 8 4 1 4 13 17 10 8 14 8 3 5 10 7 7 8 12 15 14 13 17 21 24 25 26 26 26 29 34 35 34 34 35 35 35 37 39 41 43 42 42 43 44 44 45 45 46 47 49 52 54 56 55 54 51 48 44 40 37 34 31 29 27 25 24 23 23 23 24
7 4 7 8 9 8 10 12 6 4 6 7 8 12 14 15 16 11 5 4 10 18 19 13 11 16 14 12 17 18 11 8 8 11 14 16 18 19 21 25 28 28 27 26 29 35 37 36 35 35 35 36 37 39 42 44 44 43 44 45 45 46 46 47 48 49 52 55 56 56 54 52 48 44 40 37 34 31 29 27 25 24 23 23 23 24
2 3 9 13 13 12 15 16 6 3 6 8 10 15 15 16 18 13 7 10 13 14 13 15 18 19 19 22 28 26 19 15 13 8 8 13 19 22 23 26 29 30 29 27 29 34 37 38 38 36 36 37 38 40 42 44 44 44 45 46 47 47 47 47 48 50 53 55 56 56 55 52 48 44 40 37 34 31 28 26 24 23 23 23 23 23
2 5 12 18 21 20 21 23 19 13 11 11 11 14 15 16 16 15 15 19 16 10 11 17 22 21 19 21 28 29 24 19 16 14 15 17 19 20 23 27 30 30 29 28 30 33 37 39 40 39 39 39 40 42 43 44 45 46 46 47 47 48 48 48 48 50 53 55 56 56 55 52 48 43 39 36 33 30 28 26 24 23 23 23 23 23
2 7 12 17 22 23 22 25 27 25 20 15 14 16 17 17 18 22 25 23 16 13 15 19 24 24 19 19 25 27 24 19 18 23 26 28 27 20 17 24 28 29 28 29 32 34 37 40 42 41 42 42 42 44 45 46 46 46 47 47 47 48 48 47 48 50 52 54 55 56 54 51 47 43 39 36 32 30 27 25 24 23 23 23 22 22
2 6 12 16 19 20 20 22 25 27 23 19 18 18 16 17 24 29 25 16 17 24 26 27 29 26 18 19 25 27 27 25 27 30 29 30 34 27 19 22 30 32 31 30 32 35 37 40 42 43 43 43 44 45 46 46 46 46 47 46 46 47 47 47 48 50 52 54 54 55 53 49 45 42 38 35 32 29 27 24 23 23 23 23 22 21
6 8 11 12 13 15 18 22 26 26 23 22 21 18 17 20 25 26 18 12 18 27 28 27 26 18 15 20 22 23 28 29 27 27 27 32 40 34 25 27 34 37 35 32 33 36 37 38 40 40 40 41 43 44 45 45 46 45 45 45 46 46 46 47 48 50 51 53 54 54 52 48 45 41 37 34 31 29 26 24 23 23 23 22 21 20
7 9 8 8 10 13 16 21 25 25 23 22 20 20 25 28 23 17 14 14 18 21 19 19 17 12 14 20 17 17 24 25 21 21 25 35 43 34 25 29 36 36 34 34 36 37 35 35 36 36 38 39 40 42 43 43 44 44 44 45 45 46 46 47 48 49 51 53 54 53 51 48 44 40 37 34 31 28 26 24 24 23 22 21 20 19
7 7 7 8 10 12 16 20 20 18 15 14 17 24 30 30 23 19 20 22 21 17 13 12 13 13 17 19 18 21 24 20 18 21 26 34 37 28 22 28 34 33 32 34 36 36 34 34 34 34 36 37 37 38 39 40 41 42 42 43 44 45 46 47 48 49 51 53 54 53 51 48 44 41 37 34 31 28 26 25 24 23 21 20 19 17
9 10 8 8 8 11 16 17 13 11 11 13 17 22 25 26 26 27 28 29 25 19 15 14 14 17 20 19 19 23 24 22 26 31 32 34 31 23 23 33 38 35 34 36 36 36 36 34 33 34 36 36 35 34 35 36 38 39 40 42 43 44 45 47 48 50 52 53 53 53 51 47 44 40 37 33 30 28 26 25 24 22 21 19 18 16
10 10 9 7 7 9 10 10 10 11 13 14 14 14 19 26 30 30 29 29 28 26 25 23 20 21 24 22 22 26 28 31 35 35 36 39 35 25 26 39 45 41 38 38 37 37 37 34 32 33 34 33 32 31 32 34 35 37 39 40 42 43 45 46 47 49 51 52 52 52 50 46 43 40 36 33 30 27 26 25 23 21 20 18 16 16
13 10 7 7 7 6 6 8 10 7 4 4 7 11 18 22 22 23 25 27 30 30 27 24 23 26 27 24 26 34 36 33 30 31 37 45 43 34 32 39 45 44 40 38 38 38 36 33 31 31 31 30 29 28 29 30 31 34 36 39 41 43 44 45 47 49 51 52 52 51 49 45 42 39 35 32 29 27 26 24 22 21 19 17 16 16
17 13 8 8 9 8 9 11 12 9 3 5 9 13 16 17 18 20 19 18 20 21 20 20 24 28 28 26 30 36 33 22 16 22 37 49 49 43 39 39 42 43 41 38 35 33 31 29 29 29 28 27 26 25 25 26 28 31 34 38 41 43 44 46 47 49 51 52 52 51 48 44 41 38 34 31 28 27 25 24 21 20 18 16 16 16
19 16 12 11 9 10 12 10 9 10 9 10 16 18 18 19 18 17 15 9 6 12 18 21 24 27 26 26 27 24 16 11 9 15 34 49 49 41 36 35 37 37 34 30 27 26 26 25 25 25 25 25 25 24 23 25 27 30 34 37 40 42 44 46 47 49 50 52 52 50 47 44 40 37 33 30 28 27 25 23 21 19 18 16 15 16
21 16 14 12 7 8 11 8 7 10 8 11 17 20 22 22 12 7 12 8 6 13 22 22 23 25 21 20 22 13 6 7 8 14 33 48 46 37 30 30 33 32 27 24 23 24 25 23 22 23 25 26 26 24 23 25 26 29 32 35 38 41 44 46 47 49 50 51 51 48 46 43 39 36 32 30 28 26 24 22 20 18 17 16 15 16
18 11 12 14 11 11 13 9 6 6 3 8 14 18 23 24 12 7 11 7 8 17 27 24 22 22 19 18 19 12 8 10 13 22 40 45 38 34 30 28 32 32 28 27 26 26 26 25 25 26 27 28 27 25 25 25 26 29 31 33 37 41 43 44 46 48 49 50 50 48 45 42 38 35 32 30 28 25 23 21 19 17 16 16 15 17
11 8 10 13 12 13 15 11 7 6 4 7 12 16 17 14 9 10 12 9 10 20 29 26 21 22 24 20 14 10 16 26 30 35 41 38 31 33 34 31 33 34 32 31 30 29 29 29 28 28 29 29 28 26 26 27 28 30 31 34 38 40 41 43 45 47 49 49 49 48 45 41 37 34 32 30 27 24 22 19 18 17 16 16 16 17
8 7 8 10 10 11 12 10 10 9 6 10 16 22 17 8 6 11 16 20 22 23 28 31 27 27 30 25 21 23 30 37 37 34 33 33 32 34 34 33 34 35 35 34 32 32 34 32 30 30 29 28 27 27 27 28 29 31 33 36 38 38 40 44 46 47 49 50 49 47 44 40 37 34 31 29 25 23 21 19 18 17 16 15 16 17
7 6 6 7 8 9 8 8 9 6 8 17 20 17 12 9 11 14 17 25 32 29 26 28 28 29 30 27 28 32 33 32 33 31 31 32 32 32 33 33 34 36 37 36 33 32 34 34 32 31 30 29 29 30 31 32 32 34 36 37 38 39 42 45 47 48 50 51 49 46 42 39 36 33 30 27 24 21 20 19 19 17 15 15 15 16
9 9 7 5 8 9 7 8 9 7 12 24 22 12 13 23 32 32 24 20 26 27 23 22 25 30 33 31 30 30 28 28 30 31 32 32 32 32 34 33 34 36 37 36 34 32 33 34 33 32 31 30 31 34 37 38 37 37 39 39 39 41 44 46 48 50 51 51 49 45 41 37 34 31 28 25 22 21 20 20 18 16 14 14 15 16
5 6 7 5 5 6 5 4 3 4 5 12 13 11 16 26 35 39 33 24 23 24 21 18 20 23 25 24 24 23 24 26 28 28 29 30 31 33 33 32 34 36 36 36 35 34 33 34 33 33 33 32 34 38 41 42 41 40 40 41 42 44 45 47 50 52 52 51 48 44 40 37 34 31 27 24 22 21 21 20 17 14 14 14 15 15
4 7 7 5 5 8 9 8 8 10 13 17 21 25 26 24 22 22 23 22 22 25 26 25 25 25 25 25 24 22 23 25 26 27 28 29 31 33 33 32 34 35 36 36 36 35 35 34 34 35 36 37 40 41 42 43 42 42 41 42 44 45 46 48 51 53 53 50 46 43 40 37 34 30 27 25 23 22 21 19 16 14 14 15 15 15
5 8 9 7 8 8 7 8 11 13 17 22 26 29 27 25 25 27 27 24 24 29 33 34 33 33 32 30 28 26 28 31 31 32 34 34 34 35 36 36 36 37 39 39 39 38 37 35 37 39 40 42 43 42 42 43 43 43 43 43 45 45 47 49 52 54 53 50 47 43 40 36 33 30 28 26 24 23 21 18 15 14 14 14 14 14
8 13 13 10 9 8 9 11 15 21 25 24 20 18 19 22 26 29 30 29 30 32 34 34 34 34 35 35 34 33 34 35 36 37 39 40 40 39 39 40 39 39 40 41 41 41 40 39 41 43 43 44 43 42 42 43 43 44 45 45 45 45 47 51 54 55 53 50 46 42 39 35 33 30 27 25 24 22 20 16 14 13 14 14 13 13
14 15 13 12 13 14 14 12 11 15 18 17 15 17 20 23 25 27 29 31 33 35 35 36 35 34 33 35 38 38 37 38 39 40 41 42 43 43 43 43 42 42 42 43 44 44 43 43 43 43 44 44 43 42 43 43 44 46 47 47 46 46 49 54 56 55 52 48 45 42 38 36 33 29 27 25 24 22 18 15 14 13 13 13 13 12
13 12 10 11 11 12 13 12 11 10 11 13 19 24 24 24 28 32 34 36 37 38 39 39 41 41 39 40 41 40 39 40 40 40 40 40 40 42 43 43 42 41 42 43 43 42 42 42 42 41 42 43 42 43 44 44 46 48 49 49 47 47 52 57 57 55 52 49 46 42 39 36 32 30 28 27 25 21 18 16 15 14 13 13 12 11
10 11 10 10 10 13 16 18 17 13 10 15 27 35 36 36 38 38 38 39 42 43 44 43 43 44 45 45 43 40 38 39 39 38 37 38 39 40 40 41 40 40 41 42 42 42 42 41 41 41 42 43 43 44 44 46 48 49 50 50 48 49 55 60 59 57 54 50 46 42 39 36 33 31 29 27 24 21 18 17 16 14 12 11 10 9
Wind_Direction
193 220 228 238 240 237 234 230 235 249 267 278 277 274 270 271 270 270 265 150 184 223 236 243 249 256 261 263 263 265 268 269 267 263 259 260 259 255 249 240 235 243 251 251 250 252 249 245 242 241 239 238 237 236 237 237 235 233 232 233 232 231 230 229 229 229 229 230 230 231 232 232 231 232 233 234 237 239 243 249 255 265 274 283 289 294
189 223 235 240 248 254 259 257 251 256 266 266 264 270 269 262 266 270 239 145 174 218 252 258 259 260 261 263 265 264 262 262 265 264 261 263 265 261 253 244 238 241 248 249 247 246 245 243 240 239 238 239 238 237 237 237 235 233 232 233 233 232 230 229 230 230 231 231 232 233 233 231 231 231 232 233 235 238 242 246 253 262 272 280 286 292
208 230 241 245 252 264 274 277 264 261 262 262 255 258 263 261 268 267 130 139 174 207 263 270 270 269 267 266 264 259 253 251 254 257 260 266 269 264 257 250 239 230 237 245 244 242 242 240 239 239 239 240 240 239 239 237 236 233 232 233 232 232 230 230 231 231 231 231 232 232 231 229 229 231 231 233 236 238 241 245 252 261 270 278 284 290
219 234 246 247 227 233 255 240 242 257 251 244 240 248 255 254 265 263 153 157 195 217 274 289 281 272 268 262 254 251 249 246 248 252 259 263 262 260 258 254 238 223 232 243 241 238 239 238 238 239 239 239 238 237 236 235 234 234 233 233 232 231 231 231 231 231 231 230 230 230 229 228 229 231 231 233 235 237 239 243 250 259 267 275 282 287
238 239 184 170 177 229 252 228 214 243 246 233 227 235 249 251 257 263 301 338 239 231 256 291 281 266 255 245 239 241 242 242 242 247 257 257 256 259 260 257 239 222 232 242 237 234 238 238 239 239 238 238 237 237 237 236 236 235 234 233 233 232 232 231 231 231 230 230 230 228 228 228 228 230 230 231 233 235 238 242 248 257 265 272 279 284
247 232 117 191 216 211 239 239 219 226 250 245 223 229 245 257 265 269 322 358 289 260 177 288 292 274 234 229 230 186 174 224 229 232 243 251 257 259 258 256 238 223 234 242 235 235 240 240 240 239 237 237 238 238 239 238 238 237 235 234 234 233 232 232 232 231 231 230 230 229 228 228 227 228 230 231 234 235 238 241 248 255 262 269 276 281
246 143 125 232 232 211 231 249 234 219 245 254 229 238 248 257 266 271 294 308 280 284 191 105 310 289 248 222 232 199 189 211 207 219 230 238 249 253 257 255 236 227 234 233 231 235 240 238 235 236 235 237 239 239 240 239 238 237 236 235 235 234 233 233 233 232 232 231 230 230 229 230 229 230 231 232 233 235 238 242 248 255 261 268 274 278
179 168 186 217 221 228 230 248 236 209 229 253 18 359 258 250 257 256 266 249 261 294 270 182 232 278 274 228 219 224 231 232 228 243 241 228 231 241 254 255 239 237 237 230 232 234 236 234 232 234 236 240 243 242 240 240 239 238 237 237 236 236 235 235 234 234 233 232 231 230 229 229 229 229 231 231 232 235 239 244 248 254 260 266 271 276
144 183 195 188 199 228 223 266 235 197 220 266 54 36 70 81 251 213 242 255 271 293 271 199 176 255 280 229 196 211 225 235 237 243 247 241 228 228 242 250 246 244 241 240 239 231 228 228 228 234 239 245 246 243 241 241 241 239 239 239 238 236 236 236 236 235 234 232 232 231 230 229 229 229 230 232 234 236 239 243 247 253 259 264 268 273
73 153 198 188 202 228 197 37 15 210 221 142 108 81 79 88 95 149 244 271 281 272 257 210 169 222 282 243 173 195 210 220 230 236 239 243 238 226 232 244 247 243 242 243 233 221 221 224 227 234 238 243 244 242 241 242 241 240 239 238 238 236 236 236 236 235 234 233 231 231 230 230 230 229 230 232 233 235 238 241 246 251 256 262 267 272
117 97 49 213 215 213 100 69 24 18 116 133 143 116 109 192 171 200 242 264 277 265 248 203 179 202 272 242 150 179 201 203 209 221 222 230 238 229 228 237 241 241 242 234 216 209 214 221 226 231 234 237 239 238 239 239 240 239 239 238 238 237 236 237 237 236 234 233 231 231 231 230 230 230 230 232 233 235 238 240 244 249 253 259 265 270
186 168 193 204 178 125 108 101 59 57 129 163 175 196 228 231 197 212 216 166 248 263 237 183 183 198 234 219 156 185 200 196 192 210 224 226 232 229 228 236 239 240 237 219 205 204 210 218 223 226 229 231 235 237 237 238 238 238 239 238 237 236 236 236 236 236 234 233 232 231 231 231 230 231 231 232 234 236 238 240 243 248 251 257 262 267
206 204 186 145 145 172 175 158 120 118 181 202 194 195 234 246 228 232 217 191 236 253 136 156 185 207 234 244 229 225 206 196 196 217 235 233 234 237 233 232 236 237 228 210 203 205 209 216 221 223 226 230 235 239 237 237 237 237 239 239 238 237 236 236 236 236 234 233 232 231 231 231 230 231 232 233 235 236 238 241 243 247 251 257 261 267
220 226 169 158 186 189 188 195 205 191 181 192 191 185 206 231 248 251 240 237 246 245 129 132 188 234 255 250 227 229 222 206 212 223 228 229 232 238 229 220 230 233 222 211 207 208 211 217 222 223 228 234 239 241 239 238 238 238 239 239 239 237 236 236 235 235 234 233 233 232 231 231 230 231 232 233 235 237 239 241 243 248 252 257 261 267
243 272 175 170 168 170 188 211 213 133 173 195 196 196 214 228 242 252 254 256 266 287 204 153 189 238 264 211 199 217 220 211 218 221 219 225 229 232 224 217 228 229 219 214 212 213 216 220 226 228 232 237 241 242 240 240 239 238 240 242 241 238 236 235 235 235 234 233 233 232 231 231 231 231 232 233 235 237 239 241 244 248 252 257 262 267
240 262 170 138 125 160 182 211 160 110 185 193 182 207 231 236 229 248 268 269 300 318 274 199 219 244 263 271 185 198 207 203 212 215 212 223 226 226 228 228 233 230 221 217 216 217 219 222 229 234 238 239 241 243 241 241 242 241 243 245 244 240 237 236 235 235 235 233 233 232 231 231 231 231 232 233 235 237 239 241 244 248 252 258 263 268
230 259 145 118 81 161 170 231 159 185 217 161 177 206 223 272 229 244 265 274 120 278 268 235 246 257 268 263 185 169 190 198 200 201 205 221 222 220 227 232 235 233 227 223 221 220 222 226 234 241 244 244 242 244 244 245 247 246 245 247 245 241 237 236 235 235 234 234 233 233 232 231 231 231 232 233 235 237 238 241 243 248 254 259 264 269
227 265 178 168 215 151 26 1 167 277 292 143 187 210 112 42 318 244 257 264 242 260 271 264 267 267 269 267 172 167 197 203 195 199 207 216 215 214 226 234 239 238 232 228 225 225 226 231 240 246 250 251 248 246 247 249 250 248 245 247 247 242 239 237 236 235 235 234 233 233 232 231 231 231 232 233 235 236 237 240 243 248 254 259 264 269
204 253 231 160 99 113 85 278 198 230 245 185 289 306 80 220 208 205 224 244 249 256 265 270 276 272 253 255 179 176 199 201 194 207 210 209 209 210 224 233 239 240 237 235 230 227 230 236 244 249 253 257 254 248 246 248 250 249 246 246 247 244 240 238 237 236 235 234 234 234 233 232 231 231 232 233 234 236 237 240 244 248 253 259 265 270
178 230 241 46 15 117 136 226 200 177 189 255 306 275 224 250 232 211 210 224 238 247 260 274 283 277 254 245 202 182 191 194 192 203 206 208 213 210 219 232 237 238 240 242 238 234 236 243 250 251 255 263 260 250 245 246 249 249 247 246 246 243 239 238 238 236 235 234 235 234 233 232 231 230 231 232 234 235 237 239 243 248 253 259 265 271
152 220 233 72 352 215 195 202 195 188 182 186 224 217 200 198 276 289 246 234 237 247 256 263 272 273 275 149 183 165 171 185 187 196 198 201 212 211 218 231 238 240 243 248 248 244 242 246 250 248 253 264 263 253 245 245 249 249 247 247 245 242 239 238 237 236 235 235 235 233 232 231 230 230 230 231 233 234 236 239 243 247 253 259 266 272
180 208 222 202 201 224 218 196 196 201 187 185 199 202 199 187 183 236 235 224 220 239 246 244 260 267 262 101 125 136 149 178 181 188 192 191 204 210 220 231 238 242 245 251 253 249 244 245 247 246 250 260 262 256 247 243 248 251 248 248 246 242 242 240 238 237 236 235 234 233 231 230 229 229 230 231 231 232 235 238 242 248 253 260 267 273
178 171 223 229 223 225 222 178 211 218 180 221 223 209 208 195 192 216 223 212 185 221 246 246 256 264 241 111 118 128 139 181 184 183 204 210 203 207 221 230 235 240 244 251 252 247 244 248 249 247 250 257 261 259 251 245 248 252 250 249 247 244 244 242 239 237 235 234 233 232 230 230 229 228 229 229 229 231 234 237 242 248 253 261 268 274
113 135 225 240 258 277 262 126 51 47 167 240 243 215 213 213 209 222 236 251 197 208 230 232 243 259 247 115 157 240 198 210 205 197 220 229 212 214 226 229 231 238 243 249 248 242 241 247 250 249 251 257 261 259 252 246 248 252 252 250 248 246 244 241 238 236 235 233 232 230 229 229 228 227 228 228 228 229 232 236 241 247 254 262 269 276
167 198 214 232 254 264 261 231 214 194 191 219 230 213 214 219 217 229 249 289 248 236 237 240 244 254 251 147 239 257 229 205 206 205 218 226 220 225 232 230 231 235 239 246 246 239 238 243 248 251 254 258 261 260 254 249 249 253 253 252 250 247 244 241 238 236 234 232 230 229 228 227 227 227 227 226 227 228 231 236 241 248 256 263 271 278
181 204 196 216 232 219 231 240 227 169 183 210 226 216 213 212 209 218 228 217 237 241 239 241 247 255 267 277 272 265 246 221 215 203 208 221 230 238 239 232 229 232 236 243 246 239 237 242 248 252 256 259 261 260 256 252 251 254 254 252 249 246 244 241 238 234 233 230 229 227 226 226 226 225 226 225 226 227 230 235 242 249 257 265 272 278
185 235 204 222 237 224 231 245 248 118 164 190 213 214 211 211 210 213 223 226 235 241 238 238 245 255 265 271 273 272 267 263 262 253 231 229 235 240 240 233 230 233 237 243 247 243 241 244 250 253 256 258 260 260 259 256 255 256 255 253 249 246 243 241 237 233 231 229 227 226 225 225 224 224 225 224 225 227 230 235 242 250 259 266 273 279
329 251 229 238 244 240 243 250 253 252 228 204 204 210 208 207 207 211 224 230 232 240 244 241 244 252 254 257 266 271 272 272 272 276 275 269 261 249 238 236 236 237 240 244 245 244 245 249 253 255 257 258 259 260 260 260 258 256 255 252 248 245 242 240 236 232 229 227 226 225 224 224 223 223 223 223 224 226 230 236 243 251 260 267 273 280
283 254 246 250 253 250 250 253 255 258 253 234 225 227 219 208 206 215 226 229 228 237 249 248 248 252 251 251 259 266 270 274 276 279 280 281 283 271 241 239 245 247 250 252 252 250 250 252 255 259 261 261 260 260 260 259 258 256 254 250 246 244 242 239 235 231 228 226 225 224 223 222 222 222 221 221 223 226 230 237 244 252 261 267 273 280
214 255 247 251 261 260 257 258 258 260 261 255 247 244 236 224 222 227 230 223 222 235 243 247 251 255 256 255 256 261 270 277 280 282 282 280 280 275 256 253 262 266 267 266 265 263 260 260 262 265 265 263 262 262 261 259 258 256 253 249 246 244 241 238 234 231 228 225 223 222 221 220 220 221 220 221 222 226 231 238 245 253 261 267 274 279
200 231 238 247 263 258 254 257 256 257 262 262 259 258 258 251 240 238 237 221 224 238 243 246 253 260 260 257 257 263 272 277 279 280 280 277 277 276 271 268 271 275 277 277 275 273 271 268 267 266 266 265 265 264 262 260 258 255 251 249 247 245 241 237 233 229 227 224 222 221 220 219 220 220 220 220 222 227 232 239 247 254 260 266 274 277
200 229 235 240 253 249 244 249 251 255 259 260 260 257 252 250 247 244 243 233 231 241 247 249 253 255 254 258 264 269 269 269 271 274 274 274 276 279 279 274 272 275 279 281 279 278 276 273 269 267 267 268 268 266 264 261 257 254 252 250 249 245 240 236 232 229 227 224 222 220 218 218 219 219 218 220 223 227 233 240 247 254 260 266 272 275
196 219 223 224 243 248 243 246 252 256 258 252 242 238 239 245 253 257 256 248 238 234 239 241 238 241 251 259 266 267 264 260 259 262 267 272 277 280 276 270 272 276 279 280 279 278 277 275 272 271 271 272 271 269 267 264 259 257 256 254 250 245 240 235 232 229 226 223 221 219 218 218 218 217 217 218 222 227 233 241 247 252 259 265 269 272
203 213 220 219 235 244 240 245 252 246 238 235 231 233 238 244 246 246 246 246 242 236 235 234 233 242 248 248 252 258 259 257 259 262 267 271 274 278 275 274 277 280 280 279 277 276 276 276 275 274 275 276 275 271 266 263 260 258 256 252 248 244 240 235 231 228 224 221 219 217 216 217 216 215 215 217 221 227 233 240 247 252 258 263 266 270
213 217 225 221 232 246 241 242 248 235 230 238 240 235 238 241 242 245 249 251 251 247 244 242 240 243 245 246 250 253 253 257 263 270 274 273 273 272 271 274 278 280 279 278 277 278 279 279 278 278 279 280 278 271 264 260 257 254 251 248 246 242 238 234 230 226 223 220 218 216 215 215 214 212 214 216 220 227 233 240 245 251 256 260 263 269
219 220 220 219 227 239 226 217 230 237 218 215 224 226 233 238 242 248 253 251 247 246 248 248 247 246 247 250 251 250 253 259 267 273 273 273 274 271 265 268 274 276 277 277 278 281 284 284 283 281 282 283 278 269 263 258 254 251 248 246 243 239 236 233 228 225 222 219 217 215 214 213 212 211 213 216 221 227 234 239 244 249 254 258 262 268
217 220 217 220 217 219 228 223 228 249 245 164 193 214 221 222 221 228 240 243 242 247 250 248 246 245 245 249 251 253 258 264 270 269 267 268 272 272 269 269 272 274 276 277 278 281 284 283 281 280 278 274 266 260 257 253 249 247 244 241 239 235 232 229 226 223 221 218 215 214 213 211 210 211 213 216 222 228 233 238 243 247 251 255 261 269
216 216 215 223 215 211 232 236 225 239 234 206 216 227 228 228 227 233 247 249 239 252 251 243 242 244 243 247 254 256 257 254 252 258 260 264 269 273 272 271 274 277 278 277 276 277 277 274 272 270 264 257 256 255 253 247 243 242 240 238 236 233 229 227 224 222 219 216 214 213 211 210 209 210 214 218 223 229 233 237 241 245 249 253 261 270
220 220 220 232 231 214 233 242 223 233 231 211 224 236 241 243 240 242 256 244 195 237 248 244 243 245 245 251 253 247 218 224 242 251 253 258 266 272 272 271 275 277 274 269 266 268 269 267 263 260 252 249 252 252 248 246 243 240 238 236 234 231 228 227 225 222 218 215 212 210 209 208 208 210 214 219 224 228 231 236 240 242 247 254 263 270
218 218 220 230 233 227 236 241 230 240 229 201 217 233 245 248 233 215 246 234 184 226 242 245 247 246 244 246 247 236 211 218 231 245 251 256 264 272 272 270 272 274 274 270 266 264 265 264 260 255 252 252 253 251 248 247 243 239 238 235 232 230 230 229 226 221 217 213 210 208 206 206 207 210 214 219 223 226 229 233 238 241 248 256 263 270
214 209 214 225 227 225 229 236 243 246 204 190 219 235 246 250 230 224 242 233 213 230 238 242 247 246 243 244 243 236 233 235 237 245 253 259 266 270 271 271 270 271 274 274 272 268 264 263 262 261 261 260 257 253 250 246 241 239 237 232 230 232 232 228 223 218 213 210 208 206 204 205 207 209 214 218 221 224 228 231 236 242 249 257 264 271
209 205 210 219 225 228 229 236 250 246 187 184 225 236 234 230 224 230 235 233 232 236 237 240 244 245 244 243 240 241 245 247 248 251 256 261 264 267 269 271 269 269 271 272 274 271 265 262 262 263 264 263 259 255 253 249 244 241 236 232 234 235 229 223 218 213 209 206 204 203 202 203 206 208 212 216 218 221 226 231 235 241 248 255 264 273
194 202 213 205 209 230 234 224 240 248 177 188 217 234 222 213 233 240 240 241 241 240 237 238 242 246 248 248 246 248 251 253 255 258 261 264 267 270 271 271 270 270 270 270 271 271 267 263 262 264 266 267 265 263 258 253 248 242 238 237 237 232 224 219 215 209 206 202 201 201 201 202 205 208 211 214 216 220 227 231 235 240 246 255 265 273
194 204 223 202 192 212 224 215 227 236 197 197 209 219 211 218 229 235 239 247 248 245 243 243 245 248 250 253 254 254 254 254 256 260 265 269 272 273 273 274 272 270 268 267 268 271 268 264 263 263 264 267 272 270 263 255 249 244 240 238 234 225 219 215 210 205 202 199 198 199 200 201 204 207 208 211 215 221 227 230 234 239 247 257 266 274
212 245 271 265 221 232 268 274 276 313 268 233 243 263 253 244 243 244 248 258 262 262 266 271 272 272 273 277 279 274 267 264 265 266 269 273 275 276 277 275 272 270 270 269 269 270 266 264 265 262 259 265 274 272 263 254 247 242 239 235 229 223 217 211 206 201 199 197 196 197 199 200 203 205 206 211 217 222 226 229 234 240 249 258 268 276
326 327 324 322 326 328 327 338 3 0 339 324 320 316 308 305 304 295 287 290 299 308 317 324 325 324 324 325 325 315 299 292 290 289 287 285 284 284 283 279 275 274 273 271 272 271 267 264 264 261 259 266 272 267 259 251 245 240 237 233 227 222 216 208 202 199 197 196 195 196 198 200 201 202 206 211 216 220 224 228 233 241 250 260 269 277
326 348 343 320 319 327 320 340 351 332 315 313 311 308 312 324 336 338 333 330 331 330 331 333 333 331 328 327 325 318 309 306 304 302 299 294 290 288 286 283 279 277 276 276 276 275 270 265 264 262 261 266 268 262 254 248 241 235 233 231 226 220 213 207 201 197 195 194 195 196 197 199 201 203 206 210 213 217 221 224 230 239 250 260 269 277
317 338 337 312 303 303 291 303 310 298 293 297 297 305 327 339 337 333 330 330 330 328 327 327 326 326 324 320 316 311 306 303 301 299 297 293 291 288 286 283 280 278 278 278 276 274 272 270 269 266 263 265 267 262 253 244 236 231 229 228 225 219 210 204 200 197 194 194 194 195 196 198 201 204 205 208 211 214 217 218 225 236 249 260 269 278
298 310 308 297 298 297 291 294 300 292 292 297 302 317 330 332 328 324 323 323 322 319 319 318 316 315 314 312 309 307 302 300 298 296 292 289 288 286 284 283 281 280 279 279 277 276 275 273 271 267 265 266 268 261 251 240 232 230 228 225 222 216 207 201 198 196 194 193 193 194 195 198 200 202 204 207 209 209 210 213 222 234 247 257 267 277
281 280 281 287 290 285 287 304 319 313 302 302 309 315 318 318 318 316 313 312 310 307 307 305 303 301 299 297 297 296 294 293 293 291 288 285 284 284 284 283 283 282 281 280 278 276 275 274 272 268 266 267 265 257 248 238 231 228 226 223 218 212 205 199 195 193 194 193 193 194 196 197 199 201 203 205 205 204 203 208 218 230 241 252 263 276
258 264 270 276 277 278 287 301 311 311 300 297 303 306 306 308 309 306 303 302 300 298 298 296 294 294 293 291 289 286 284 285 286 286 286 284 283 283 283 284 284 285 284 283 280 278 278 278 274 269 267 266 262 254 245 237 231 228 225 220 214 208 204 199 194 193 193 193 193 194 196 198 199 200 202 202 200 199 201 206 214 223 235 247 260 272